N9ISN Weather Reports


Display with metric or nautical units.
time (UTC)temp
F
wind
direction
speed
MPH
gust
MPH
rain 1hr
in
rain 24hr
in
rain mn
in
humidity
%
barometer
mb
20260503231506 68 290 8.0 17.0 0.00 0.00 0.00 28 1003.8
20260503230006 69 280 11.0 22.0 0.00 0.00 0.00 29 1003.7
20260503224505 69 269 5.0 18.0 0.00 0.00 0.00 30 1003.6
20260503223005 69 261 14.0 24.0 0.00 0.00 0.00 29 1003.6
20260503221503 70 311 11.0 18.0 0.00 0.00 0.00 31 1003.8
20260503220003 70 299 15.0 21.0 0.00 0.00 0.00 30 1003.7
20260503214508 70 277 11.0 24.0 0.00 0.00 0.00 32 1003.6
20260503213002 70 359 9.0 16.0 0.00 0.00 0.00 34 1003.5
20260503211614 71 26 9.0 16.0 0.00 0.00 0.00 34 1003.6
20260503210059 70 286 10.0 19.0 0.00 0.00 0.00 30 1003.7
20260503204559 70 302 12.0 24.0 0.00 0.00 0.00 33 1003.8
20260503203056 71 242 11.0 20.0 0.00 0.00 0.00 36 1003.8
20260503201554 69 317 11.0 21.0 0.00 0.00 0.00 37 1003.9
20260503194602 70 354 10.0 23.0 0.00 0.00 0.00 39 1004.3
20260503193101 70 23 11.0 23.0 0.00 0.00 0.00 38 1004.3
20260503191554 70 301 7.0 18.0 0.00 0.00 0.00 42 1004.3
20260503190049 68 333 12.0 20.0 0.00 0.00 0.00 39 1004.4
20260503184558 67 359 4.0 15.0 0.00 0.00 0.00 41 1004.4
20260503183044 68 275 8.0 16.0 0.00 0.00 0.00 43 1004.6
20260503181602 68 16 8.0 18.0 0.00 0.00 0.00 45 1004.7
20260503180051 67 300 10.0 16.0 0.00 0.00 0.00 43 1004.9
20260503174546 67 278 4.0 13.0 0.00 0.00 0.00 47 1005.0
20260503173049 66 252 8.0 15.0 0.00 0.00 0.00 46 1005.1
20260503171535 65 321 3.0 15.0 0.00 0.00 0.00 44 1005.2
20260503081541 52 191 3.0 8.0 0.00 0.00 0.00 62 1007.0
20260503071527 52 205 3.0 6.0 0.00 0.00 0.00 65 1007.6
20260503054516 53 215 2.0 7.0 0.00 0.00 0.00 63 1009.0
20260503053010 53 205 3.0 10.0 0.00 0.00 0.00 65 1009.3
20260503051515 54 295 2.0 11.0 0.00 0.00 0.00 65 1009.3
20260503050006 54 244 4.0 9.0 0.00 0.00 0.00 57 1009.3
20260503044504 54 221 3.0 8.0 0.00 0.00 0.00 57 1009.3
20260503043002 54 226 4.0 11.0 0.00 0.00 0.00 55 1009.5
20260503041502 54 244 5.0 9.0 0.00 0.00 0.00 55 1009.6
20260503040105 54 232 4.0 11.0 0.00 0.00 0.00 54 1009.7
20260503034604 54 234 6.0 11.0 0.00 0.00 0.00 55 1009.9
20260503033059 53 224 4.0 6.0 0.00 0.00 0.00 56 1010.0
20260503031556 54 207 6.0 7.0 0.00 0.00 0.00 57 1010.2
20260503030124 55 213 4.0 8.0 0.00 0.00 0.00 52 1010.5
20260503024554 54 244 3.0 8.0 0.00 0.00 0.00 51 1010.7
20260503023053 55 226 2.0 5.0 0.00 0.00 0.00 52 1010.6
20260503021559 54 228 3.0 6.0 0.00 0.00 0.00 52 1010.7
20260503020051 55 207 5.0 8.0 0.00 0.00 0.00 52 1010.5
20260503014602 55 215 6.0 8.0 0.00 0.00 0.00 51 1010.7
20260503013052 56 219 3.0 6.0 0.00 0.00 0.00 50 1010.8
20260503011554 56 212 3.0 5.0 0.00 0.00 0.00 50 1010.8
20260503010100 57 221 3.0 5.0 0.00 0.00 0.00 47 1010.9
20260503004546 58 220 3.0 6.0 0.00 0.00 0.00 44 1010.9
20260503003055 58 221 5.0 9.0 0.00 0.00 0.00 44 1011.0
20260503001543 59 217 4.0 9.0 0.00 0.00 0.00 44 1011.1
20260503000042 59 238 5.0 9.0 0.00 0.00 0.00 42 1011.3
20260502234541 60 225 3.0 9.0 0.00 0.00 0.00 40 1011.5
20260502233041 60 248 5.0 16.0 0.00 0.00 0.00 41 1011.5